Regional Weather Roundup
Issued by NWS

Home | Current Version | Previous Version | Graphics & Text | Print | Product List | Glossary On
Versions: 1 2 3 4 5 6 7 8 9 10 11 12 13 14 15 16 17 18 19 20 21 22 23 24 25 26 27 28 29 30 31 32 33 34 35 36 37 38 39 40 41 42 43 44 45 46 47 48 49 50
000
ASUS43 KFSD 011702
RWRSD

WEATHER ROUNDUP FOR SOUTH DAKOTA
NATIONAL WEATHER SERVICE SIOUX FALLS SD
1100 AM CST SUN FEB 01 2015

NOTE: "FAIR" INDICATES FEW OR NO CLOUDS BELOW 12,000 FEET WITH NO
SIGNIFICANT WEATHER AND/OR OBSTRUCTIONS TO VISIBILITY.


SDZ001>005-009-010-012>017-011800-
NORTHWEST AND NORTH CENTRAL SOUTH DAKOTA

CITY           SKY/WX    TMP DP  RH WIND       PRES   REMARKS
BUFFALO          N/A      2  -4  76 NW15      30.29F WCI -17
FAITH            N/A      1  -7  68 N17       30.41R WCI -19
MOBRIDGE       MOSUNNY   -1 -12  59 N18       30.44S WCI -22
$$

SDZ012>016-024>037-041>051-057-063-072>074-011800-
SOUTHWEST AND SOUTH CENTRAL SOUTH DAKOTA

CITY           SKY/WX    TMP DP  RH WIND       PRES   REMARKS
RAPID CTY ARPT SUNNY      5   1  83 N23G29    30.35S WCI -17
PIERRE         LGT SNOW  -1  -7  75 N18       30.45R WCI -22
CUSTER         SUNNY      9  -3  58 VRB7      30.11R WCI  -2
ELLSWORTH AFB  SUNNY      5   1  85 N17       30.34S WCI -14
PHILIP         CLOUDY     3  -6  66 N16       30.44S WCI -16
PINE RIDGE     PTSUNNY    5  -3  69 NW13G24   30.34R WCI -12
WINNER         LGT SNOW   1  -5  75 NW24      30.39R WCI -22
$$

SDZ004>011-016>023-039-040-011800-
NORTHEAST SOUTH DAKOTA

CITY           SKY/WX    TMP DP  RH WIND       PRES   REMARKS
ABERDEEN       CLOUDY     1 -10  60 N23       30.47R WCI -22
WATERTOWN      PTSUNNY    1  -5  75 N20       30.31R WCI -20
SISSETON         N/A     -2 -10  69 N20       30.44R WCI -24
$$

SDZ017-020-022-023-036>040-048>070-011800-
SOUTHEAST SOUTH DAKOTA

CITY           SKY/WX    TMP DP  RH WIND       PRES   REMARKS
SIOUX FALLS    LGT SNOW   6   1  80 N21G28    30.23R VSB 3/4 WCI -14
HURON          LGT SNOW   1  -6  71 N22G30    30.40R WCI -21
MITCHELL       LGT SNOW   2  -3  80 N23G31    30.37R VSB 1   WCI -21
YANKTON        CLOUDY   N/A N/A N/A N28       30.27R VSB 1
$$

ABBREVIATIONS USED IN REMARKS
   TC - TEMPERATURE IN CELSIUS
  WCI - WIND CHILL INDEX
   HX - HEAT INDEX
  VSB - VISIBILITY




USA.gov is the U.S. government's official web portal to all federal, state and local government web resources and services.